This demonstration page uses our WeatherBlox Daily Observations layout. Learn more.

Left ArrowRight Arrow

Hourly Observations for October 3, 2016

Temp ( °F °C ) Dew Point ( °F °C ) Humidity (%) Winds ( mph kmh ) Pressure ( in mb ) Visibility ( mi km ) Precip ( " mm )
12:53 am 00:53 Clear 69 20.6 61 16.1 76 76 SE 10 17 29.84 1011 10 16 0.00 0.00
1:53 am 01:53 Clear 68 20 62 16.7 81 81 SE 13 20 29.83 1010 10 16 0.00 0.00
2:53 am 02:53 Clear 66 18.9 62 16.7 87 87 SE 14 22 29.81 1010 10 16 0.00 0.00
3:53 am 03:53 Clear 65 18.3 62 16.7 90 90 SE 12 19 29.80 1009 9 14 0.00 0.00
4:53 am 04:53 Clear 64 17.8 61 16.1 90 90 SE 10 17 29.78 1009 8 13 0.00 0.00
5:53 am 05:53 Clear 63 17.2 61 16.1 93 93 SE 8 13 29.79 1009 7 11 0.00 0.00
6:53 am 06:53 Clear with Mist and Fog 61 16.1 60 15.6 97 97 SSE 5 7 29.80 1009 6 10 0.00 0.00
7:53 am 07:53 Sunny with Mist and Fog 60 15.6 59 15 96 96 SE 6 9 29.82 1010 5 8 0.00 0.00
8:53 am 08:53 Sunny 64 17.8 61 16.1 90 90 SE 9 15 29.81 1009 7 11 0.00 0.00
9:53 am 09:53 Sunny 70 21.1 62 16.7 76 76 SSE 12 19 29.81 1009 10 16 0.00 0.00
10:53 am 10:53 Partly Cloudy 75 23.9 61 16.1 62 62 SSE 8 13 29.80 1009 10 16 0.00 0.00
11:53 am 11:53 Mostly Cloudy 79 26.1 56 13.3 45 45 S 3 6 29.79 1009 10 16 0.00 0.00
12:53 pm 12:53 Cloudy 83 28.3 54 12.2 37 37 SSW 7 11 29.77 1008 10 16 0.00 0.00
1:53 pm 13:53 Mostly Sunny 87 30.6 49 9.4 27 27 SW 6 9 29.73 1007 10 16 0.00 0.00
2:53 pm 14:53 Mostly Cloudy 89 31.7 46 7.8 23 23 SW 7 11 29.69 1005 10 16 0.00 0.00
3:53 pm 15:53 Sunny 91 32.8 49 9.4 24 24 SW 14 22 29.66 1004 10 16 0.00 0.00
4:53 pm 16:53 Sunny 91 32.8 49 9.4 24 24 SW 12 19 29.63 1003 10 16 0.00 0.00
5:53 pm 17:53 Mostly Cloudy 90 32.2 50 10 25 25 SW 13 20 29.62 1003 10 16 0.00 0.00
6:53 pm 18:53 Mostly Sunny 87 30.6 51 10.6 29 29 SSW 10 17 29.61 1003 10 16 0.00 0.00
7:53 pm 19:53 Clear 82 27.8 52 11.1 35 35 S 8 13 29.61 1003 10 16 0.00 0.00
8:53 pm 20:53 Partly Cloudy 81 27.2 60 15.6 49 49 SSE 16 26 29.62 1003 10 16 0.00 0.00
9:53 pm 21:53 Clear 77 25 52 11.1 42 42 SSW 8 13 29.62 1003 10 16 0.00 0.00
10:53 pm 22:53 Clear 72 22.2 54 12.2 53 53 S 16 26 29.65 1004 10 16 0.00 0.00
11:53 pm 23:53 Clear 71 21.7 62 16.7 73 73 SSE 16 26 29.65 1004 10 16 0.00 0.00

Powered by AerisWeather